This is the latest recevied weather packets stored in our database for station/object K3HM. If no packets are shown the sender has not sent any weather packets the latest 10 day(s).
| Time | Temp. | Humidity | Pressure | Rain* | Wind** | Luminosity | Snow |
|---|---|---|---|---|---|---|---|
| 1777645838 | 8.89° C | 64% | 1014 hPa | 0 mm | - | 390 W/m² | - |
| 1777645535 | 8.89° C | 69% | 1013.9 hPa | 0 mm | - | 389 W/m² | - |
| 1777645231 | 8.89° C | 69% | 1013.9 hPa | 0 mm | - | 370 W/m² | - |
| 1777644927 | 8.33° C | 69% | 1014 hPa | 0 mm | - | 415 W/m² | - |
| 1777644625 | 8.33° C | 71% | 1014 hPa | 0 mm | - | 531 W/m² | - |
| 1777644321 | 8.33° C | 69% | 1014.1 hPa | 0 mm | - | 502 W/m² | - |
| 1777644017 | 7.78° C | 72% | 1014.2 hPa | 0 mm | - | 484 W/m² | - |
| 1777643714 | 7.78° C | 73% | 1014.1 hPa | 0 mm | - | 493 W/m² | - |
| 1777643412 | 7.22° C | 74% | 1014.3 hPa | 0 mm | - | 482 W/m² | - |
| 1777643108 | 7.22° C | 77% | 1014 hPa | 0 mm | - | 455 W/m² | - |
| 1777642805 | 7.22° C | 79% | 1014.3 hPa | 0 mm | - | 465 W/m² | - |
| 1777642501 | 6.67° C | 79% | 1014.2 hPa | 0 mm | - | 446 W/m² | - |
| 1777642198 | 6.67° C | 81% | 1014.2 hPa | 0 mm | - | 444 W/m² | - |
| 1777641896 | 6.67° C | 83% | 1014.1 hPa | 0 mm | - | 377 W/m² | - |
| 1777641595 | 6.11° C | 84% | 1014.4 hPa | 0 mm | - | 404 W/m² | - |
| 1777641295 | 6.11° C | 85% | 1014.3 hPa | 0 mm | - | 381 W/m² | - |
| 1777640992 | 6.11° C | 86% | 1014.3 hPa | 0 mm | - | 353 W/m² | - |
| 1777640688 | 5.56° C | 88% | 1014.5 hPa | 0 mm | - | 317 W/m² | - |
| 1777640385 | 5° C | 88% | 1014.5 hPa | 0 mm | - | 263 W/m² | - |
| 1777640082 | 5° C | 89% | 1014.7 hPa | 0 mm | - | 197 W/m² | - |
| 1777639778 | 4.44° C | 90% | 1014.6 hPa | 0 mm | - | 179 W/m² | - |
| 1777639476 | 3.89° C | 92% | 1014.6 hPa | 0 mm | - | 156 W/m² | - |
| 1777639173 | 3.89° C | 94% | 1014.7 hPa | 0 mm | - | 145 W/m² | - |
| 1777638869 | 3.33° C | 96% | 1014.8 hPa | 0 mm | - | 137 W/m² | - |
| 1777638565 | 2.78° C | 97% | 1014.9 hPa | 0 mm | - | 123 W/m² | - |
* Rain latest hour (hover to see other rain measurements)
** Current wind speed in m/s (hover to see current wind gust speed)